Powrót do katalogu

DELTA 1 DEB

AktywnySSO
NORAD 2775·DEBRIS·🇺🇸 United States

Wystrzelony Oct 2, 1966 z Vandenberg Space Force Base

Loading…

Następne Przeloty (najbliższe 24 godziny)

TLE

ŚwieżeSource: Space-Track

Epoka: Sep 14, 2026, 11:48 UTC

1 02775U 66087D   26257.49224736 -.00000042  00000-0  58021-5 0  9995
2 02775 100.9279 257.5097 0124490 299.8489 213.7548 12.71701403781681

Śledź DELTA 1 DEB w czasie rzeczywistym z AllMySat

Download on the App Store